[[{"header":{"parameterUnit":"m.s-1","parameterCategory":1,"la1":30.2991,"la2":30.254,"lo1":-89.0895,"lo2":-89.0444,"dy":0.0017,"dx":0.0017,"nx":28,"ny":28,"refTime":"2024-05-10T03:00:00:Z","depth":0,"parameterNumber":2,"parameterNumberName":"U-component_of_WINDS"},"data":[0,0,0,0,0,0,0,0,0,0,0,0,0,0,0,0,0,0,0,0,0,0,0,0,0,0,0,0,0,0,0,0,0,0,0,0,0,0,0,0,0,0,0,0,0,0,0,0,0,0,0,0,0,0,0,0,0,0,3.5784,3.5784,0,3.5836,3.5837,3.5838,3.5785,3.5783,3.5781,3.5779,3.5831,3.5834,3.5838,0,0,0,0,0,0,0,0,0,0,0,0,0,3.5634,3.5637,3.5784,3.5784,3.5785,3.5836,3.5837,3.5838,3.5785,3.5783,3.578,3.5778,3.583,3.5834,3.5838,0,0,0,0,0,0,0,0,0,0,0,0,0,3.5694,3.5638,3.5784,3.5765,3.5764,3.5836,3.5837,3.5838,3.5786,3.5783,3.578,3.5777,3.5829,3.5834,3.5838,3.5931,0,0,3.5854,3.5856,0,0,0,0,0,0,0,0,3.5691,3.57,3.5767,3.5766,3.5765,3.5801,3.5803,3.5869,3.5787,3.5778,3.5779,3.5775,3.5823,3.5829,3.5845,3.5933,3.5936,3.5854,3.5857,3.5859,3.5861,0,0,0,0,0,0,0,3.5687,3.5697,3.5804,3.5768,3.5767,3.5753,3.5758,3.5816,3.5817,3.5778,3.5774,3.5781,3.5822,3.5841,3.5846,3.5936,3.5854,3.5858,3.5861,3.5863,3.61,3.6103,0,0,0,0,0,0,3.5685,3.5694,3.5803,3.5806,3.572,3.5758,3.5764,3.5793,3.5816,3.5817,3.5784,3.5779,3.5834,3.584,3.5848,3.5956,3.5859,3.5864,3.5867,3.6097,3.6101,3.6105,0,0,0,0,0,0,3.5682,3.5695,3.5801,3.5749,3.5761,3.5764,3.5797,3.5795,3.5813,3.5821,3.5821,3.5803,3.5832,3.5841,3.591,3.5957,3.5866,3.5871,3.6093,3.6098,3.6103,3.6173,0,0,0,0,0,0,3.5678,3.5695,3.5731,3.575,3.5764,3.5863,3.58,3.5799,3.5822,3.5816,3.5838,3.5839,3.583,3.5903,3.5915,3.5962,3.5874,3.6089,3.6095,3.6101,3.6167,3.618,3.6192,0,0,0,0,0,3.5673,3.5749,3.5733,3.5746,3.581,3.5866,3.5874,3.5863,3.5827,3.5862,3.5866,3.5838,3.595,3.5911,3.5924,3.5973,3.6086,3.6093,3.6101,3.6161,3.6178,3.6191,0,0,0,0,0,0,3.5734,3.5751,3.5734,3.5818,3.5841,3.5857,3.5902,3.5881,3.5914,3.5906,3.589,3.5896,3.5969,3.5978,3.5934,3.6062,3.6012,3.6022,3.6053,3.6069,3.6081,3.6076,3.5879,0,0,0,0,0,3.5758,3.5803,3.5815,3.5888,3.5901,3.59,3.5924,3.5913,3.5936,3.5945,3.5954,3.5977,3.6017,3.6044,3.6081,3.6168,3.6171,3.6208,3.6221,3.6231,3.6239,3.6284,3.63,3.6129,3.6129,3.6129,0,0,3.5806,3.5821,3.5851,3.5901,3.5917,3.5963,3.5908,3.596,3.5993,3.5953,3.6018,3.6026,3.605,3.6128,3.6163,3.6138,3.6287,3.624,3.6248,3.6251,3.6293,3.6309,3.6323,3.6134,3.6133,3.6132,0,0,3.5918,3.5935,3.5996,3.6014,3.604,3.6038,3.6053,3.6072,3.6076,3.6142,3.6112,3.6151,3.6221,3.6238,3.6256,3.6373,3.6348,3.6386,3.645,3.6493,3.6506,3.6518,3.6558,3.6572,3.6395,3.6395,3.6395,0,3.5975,3.6044,3.6031,3.6084,3.6106,3.6072,3.6133,3.6151,3.6187,3.6202,3.6174,3.626,3.6274,3.6354,3.6382,3.6399,3.6414,3.6383,3.6506,3.6517,3.6528,3.6565,3.6581,3.6399,3.6399,3.6398,3.6398,0,3.6111,3.6159,3.6206,3.6242,3.6269,3.6326,3.6321,3.635,3.6336,3.6337,3.6403,3.6419,3.6458,3.6476,3.6464,3.6555,3.6538,3.6508,3.6457,3.6549,3.6583,3.6598,3.6405,3.6404,3.6403,3.6402,0,0,3.6263,3.629,3.6307,3.6322,3.6347,3.6384,3.6438,3.6477,3.6501,3.6527,3.6571,3.663,3.6602,3.6623,3.6612,3.665,3.6739,3.6615,3.6615,3.6636,3.6837,3.6858,3.6875,3.6723,3.6725,3.6728,3.6834,0,3.6373,3.6469,3.6458,3.6548,3.6591,3.6559,3.6606,3.6626,3.6629,3.6664,3.6666,3.6708,3.6669,3.668,3.6717,3.672,3.6779,3.6713,3.6762,3.6763,3.6755,3.6893,3.6916,3.7016,3.6848,3.685,3.6852,0,3.6515,3.6546,3.6641,3.6658,3.6675,3.6718,3.6751,3.6786,3.6807,3.6806,3.6829,3.6811,3.6864,3.6812,3.6884,3.684,3.6859,3.6863,3.6867,3.6869,3.6812,3.6898,3.7048,3.7062,3.6874,3.6872,3.687,0,3.6613,3.6679,3.6743,3.6757,3.6779,3.681,3.682,3.6838,3.6861,3.689,3.6904,3.6939,3.6957,3.6984,3.6975,3.6939,3.7048,3.6996,3.7046,3.7046,3.7069,3.7068,3.7223,3.7085,3.7085,3.7085,3.7085,0,3.6737,3.6795,3.6787,3.6827,3.6891,3.6877,3.6941,3.6947,3.6963,3.7002,3.6977,3.7014,3.7001,3.7036,3.703,3.7089,3.7098,3.7097,3.7094,3.7098,3.7098,3.7109,3.7101,3.7089,3.7088,3.7087,3.7087,0,3.6856,3.6854,3.6921,3.6937,3.6942,3.6988,3.7,3.7036,3.7036,3.7086,3.7097,3.7096,3.7137,3.7131,3.7176,3.7171,3.7244,3.7234,3.7237,3.7234,3.7284,3.7278,3.745,3.7471,3.7322,3.7323,3.7325,0,3.6934,3.6979,3.6998,3.7023,3.7035,3.7075,3.7098,3.7087,3.7111,3.7138,3.7171,3.7209,3.7239,3.7305,3.7308,3.7342,3.7331,3.7389,3.7336,3.7338,3.7329,3.7326,3.7329,3.7399,3.74,3.7402,3.7403,0,3.7072,3.7068,3.7103,3.7137,3.7165,3.7192,3.7215,3.7236,3.7226,3.7255,3.7297,3.732,3.7366,3.7403,3.7435,3.7444,3.7421,3.742,3.7433,3.7436,3.7435,3.7434,3.7264,3.7415,3.7414,3.7413,3.7413,3.7412,3.7172,3.7209,3.7228,3.7267,3.7283,3.7306,3.734,3.7344,3.7378,3.7415,3.7406,3.7452,3.747,3.751,3.7522,3.7557,3.7536,3.7555,3.756,3.7564,3.7569,3.7431,3.7563,3.7563,3.7563,3.7562,3.7562,0,3.7307,3.7317,3.7353,3.7386,3.7417,3.7394,3.7418,3.7444,3.7485,3.7505,3.7534,3.7581,3.7617,3.7622,3.7656,3.7683,3.7673,3.7692,3.7689,3.7691,3.7587,3.7572,3.7699,3.7699,3.7699,3.7699,3.7699,3.7699,3.738,3.744,3.7439,3.7506,3.7516,3.7561,3.7577,3.7597,3.7612,3.7665,3.7694,3.7698,3.7711,3.7746,3.7777,3.7777,3.779,3.7813,3.7809,3.7712,3.7698,3.7685,3.767,3.7816,3.7816,3.7909,3.791,3.791]},{"header":{"parameterUnit":"m.s-1","parameterCategory":1,"la1":30.2991,"la2":30.254,"lo1":-89.0895,"lo2":-89.0444,"dy":0.0017,"dx":0.0017,"nx":28,"ny":28,"refTime":"2024-05-10T03:00:00:Z","depth":0,"parameterNumber":3,"parameterNumberName":"V-component_of_WINDS"},"data":[0,0,0,0,0,0,0,0,0,0,0,0,0,0,0,0,0,0,0,0,0,0,0,0,0,0,0,0,0,0,0,0,0,0,0,0,0,0,0,0,0,0,0,0,0,0,0,0,0,0,0,0,0,0,0,0,0,0,4.8166,4.8167,0,4.829,4.8291,4.8292,4.8253,4.8251,4.8248,4.8246,4.837,4.8376,4.8381,0,0,0,0,0,0,0,0,0,0,0,0,0,4.7892,4.7897,4.8166,4.8167,4.8169,4.8289,4.8291,4.8293,4.8254,4.8251,4.8247,4.8244,4.8368,4.8375,4.8382,0,0,0,0,0,0,0,0,0,0,0,0,0,4.8013,4.7899,4.8165,4.8164,4.8165,4.8289,4.8291,4.8293,4.8254,4.8251,4.8247,4.8243,4.8366,4.8374,4.8383,4.8515,0,0,4.8409,4.8413,0,0,0,0,0,0,0,0,4.8006,4.8023,4.8163,4.8164,4.8166,4.8252,4.824,4.8368,4.8255,4.822,4.8246,4.8241,4.8334,4.8345,4.8377,4.8521,4.8526,4.841,4.8415,4.8419,4.8422,0,0,0,0,0,0,0,4.7998,4.8017,4.8215,4.8165,4.8167,4.8156,4.8169,4.8264,4.8298,4.8223,4.8221,4.8236,4.8334,4.8369,4.8379,4.8528,4.841,4.8418,4.8423,4.8426,4.8785,4.8789,0,0,0,0,0,0,4.7989,4.8011,4.8211,4.8218,4.8075,4.8164,4.8178,4.8228,4.8297,4.8303,4.8239,4.8234,4.8356,4.8369,4.8384,4.8541,4.8419,4.8427,4.8432,4.8781,4.8786,4.879,0,0,0,0,0,0,4.7983,4.8007,4.8206,4.8114,4.8138,4.8173,4.8229,4.8233,4.8267,4.8309,4.8314,4.8269,4.8353,4.8371,4.8482,4.8545,4.8431,4.8439,4.8775,4.8782,4.8788,4.8859,0,0,0,0,0,0,4.7975,4.8005,4.8057,4.8115,4.8144,4.8304,4.8233,4.8238,4.8283,4.8277,4.8338,4.8344,4.8351,4.847,4.8491,4.8555,4.8446,4.877,4.8778,4.8786,4.8851,4.8867,4.8881,0,0,0,0,0,4.7966,4.8072,4.806,4.8084,4.8209,4.8308,4.8323,4.833,4.8288,4.8339,4.8365,4.8342,4.8535,4.8481,4.8505,4.8573,4.8766,4.8776,4.8785,4.8845,4.8864,4.8881,0,0,0,0,0,0,4.8019,4.808,4.8067,4.8195,4.8247,4.8301,4.8366,4.8351,4.8415,4.8407,4.8412,4.8426,4.854,4.8567,4.8506,4.8703,4.8644,4.8659,4.8681,4.87,4.8714,4.8705,4.8453,0,0,0,0,0,4.8046,4.8122,4.817,4.8279,4.8305,4.8331,4.8375,4.8376,4.8429,4.845,4.8484,4.8536,4.8608,4.8656,4.8724,4.8855,4.8867,4.8913,4.8928,4.894,4.8953,4.9022,4.9042,4.8822,4.8822,4.8822,0,0,4.8102,4.8145,4.8192,4.8291,4.8331,4.8408,4.835,4.8435,4.8492,4.8463,4.8569,4.8596,4.8654,4.8775,4.883,4.8802,4.9016,4.8952,4.8962,4.8968,4.9034,4.9055,4.9073,4.8829,4.8828,4.8827,0,0,4.8244,4.8284,4.8378,4.8419,4.848,4.8497,4.8519,4.8576,4.8593,4.87,4.8679,4.8747,4.8871,4.8913,4.895,4.9106,4.9086,4.9128,4.9205,4.9273,4.929,4.9305,4.9359,4.9379,4.9141,4.9141,4.9141,0,4.8305,4.8422,4.8428,4.8515,4.8558,4.8535,4.8629,4.8669,4.8749,4.8779,4.8746,4.8901,4.8938,4.9068,4.9106,4.9137,4.9162,4.9121,4.9287,4.9303,4.9317,4.9369,4.9389,4.9145,4.9145,4.9144,4.9144,0,4.8494,4.8575,4.8644,4.8722,4.8773,4.8863,4.8881,4.8932,4.8928,4.8947,4.9056,4.91,4.9176,4.9207,4.9204,4.9336,4.9316,4.9286,4.9226,4.9343,4.9391,4.9411,4.9152,4.915,4.9149,4.9148,0,0,4.8673,4.8753,4.8778,4.8812,4.8878,4.894,4.9028,4.9103,4.9146,4.9202,4.9275,4.938,4.9351,4.9394,4.9395,4.9455,4.9573,4.9416,4.9418,4.9443,4.9719,4.9741,4.9764,4.956,4.9564,4.9567,4.9714,0,4.8819,4.8975,4.8982,4.9123,4.9197,4.9176,4.9253,4.93,4.932,4.9385,4.9407,4.9481,4.9438,4.9463,4.9521,4.9546,4.9628,4.9536,4.9627,4.963,4.9612,4.9789,4.9814,4.9949,4.9733,4.9736,4.9738,0,4.901,4.9072,4.9221,4.9274,4.9305,4.9374,4.9443,4.9505,4.9558,4.9568,4.9615,4.9608,4.9696,4.9634,4.9755,4.9692,4.9729,4.9747,4.9753,4.9761,4.9691,4.9801,4.9993,5.0013,4.9768,4.9766,4.9764,0,4.9124,4.9245,4.9349,4.9379,4.9444,4.9493,4.9522,4.9571,4.9615,4.9675,4.9703,4.9772,4.981,4.9863,4.9873,4.9827,4.9994,4.9933,5.0004,5.0003,5.0039,5.0037,5.0239,5.0065,5.0065,5.0064,5.0064,0,4.9286,4.9377,4.94,4.9464,4.9565,4.9572,4.9672,4.9697,4.9741,4.9808,4.9794,4.9858,4.9868,4.9934,4.9942,5.004,5.0058,5.0067,5.0068,5.0068,5.0067,5.0092,5.0083,5.007,5.0069,5.0068,5.0067,0,4.943,4.945,4.9561,4.9614,4.9629,4.9701,4.9745,4.9805,4.9824,4.9909,4.9929,4.9958,5.0034,5.0049,5.014,5.0145,5.0261,5.0254,5.0244,5.0243,5.0312,5.0304,5.0536,5.0567,5.0374,5.0376,5.0378,0,4.9531,4.9601,4.9661,4.9705,4.9737,4.9809,4.9854,4.9862,4.991,4.9974,5.0026,5.0101,5.0161,5.0283,5.0311,5.0379,5.0372,5.0449,5.0382,5.0379,5.0372,5.0367,5.0373,5.0461,5.0463,5.0465,5.0466,0,4.9709,4.9715,4.978,4.985,4.9904,4.9958,5.001,5.0047,5.0063,5.0116,5.0194,5.024,5.0332,5.0406,5.0474,5.0502,5.0487,5.0487,5.0507,5.0507,5.0498,5.0502,5.0277,5.0482,5.048,5.0479,5.0478,5.0478,4.9834,4.9894,4.9945,5.0019,5.0058,5.0107,5.0166,5.0191,5.0257,5.0332,5.0333,5.0418,5.0467,5.0557,5.059,5.0655,5.0631,5.066,5.0667,5.0674,5.0679,5.0488,5.0667,5.0667,5.0667,5.0666,5.0666,0,5.0009,5.0041,5.0108,5.0181,5.0238,5.022,5.0276,5.0324,5.0399,5.0447,5.0506,5.0594,5.0665,5.0698,5.0768,5.0814,5.0808,5.0832,5.0828,5.0834,5.0698,5.0673,5.0835,5.0835,5.0835,5.0835,5.0835,5.0835,5.0107,5.0208,5.022,5.0339,5.037,5.0453,5.0487,5.0531,5.0568,5.0668,5.0727,5.0748,5.079,5.0862,5.0926,5.0933,5.0959,5.0986,5.099,5.0861,5.0844,5.0828,5.0805,5.0992,5.0992,5.1121,5.1123,5.1124]}]]